• In Deutschland
  • Länderverzeichnis
  • Für 7 Tage
  • Wassertemperatur
  • Satellitenkarten
  • Wetterkarte
  • Widgets
  • user-avatar
    Anmelden

    Stündliche Wetter Arkadia

    Heute, 25 Mai, Freitag

    Zeit Temperatur Niederschläge Wind Luftdruck Luftfeuchtigkeit
    00:00 +13°C° 0 mm 1 m/S 663 mmHg 87%
    01:00 +12°C° 0 mm 1 m/S 663 mmHg 87%
    02:00 +12°C° 0 mm 1 m/S 663 mmHg 88%
    03:00 +12°C° 0 mm 1 m/S 663 mmHg 88%
    04:00 +12°C° 0 mm 1 m/S 663 mmHg 88%
    05:00 +14°C° 0 mm 1 m/S 663 mmHg 81%
    06:00 +15°C° 0 mm 1 m/S 664 mmHg 75%
    07:00 +18°C° 0 mm 1 m/S 664 mmHg 68%
    08:00 +18°C° 0 mm 2 m/S 665 mmHg 62%
    09:00 +20°C° 0 mm 2 m/S 665 mmHg 56%
    10:00 +21°C° 0 mm 2 m/S 666 mmHg 50%
    11:00 +21°C° 0,4 mm 2 m/S 666 mmHg 52%
    12:00 +21°C° 0,4 mm 2 m/S 666 mmHg 53%
    13:00 +20°C° 0,4 mm 2 m/S 666 mmHg 54%
    14:00 +20°C° 0,9 mm 2 m/S 665 mmHg 55%
    15:00 +20°C° 0,9 mm 2 m/S 665 mmHg 56%
    16:00 +20°C° 0,9 mm 2 m/S 665 mmHg 57%
    17:00 +19°C° 0,5 mm 1 m/S 665 mmHg 62%
    18:00 +18°C° 0,5 mm 1 m/S 665 mmHg 67%
    19:00 +15°C° 0,5 mm 1 m/S 664 mmHg 72%
    20:00 +15°C° 0 mm 1 m/S 665 mmHg 72%
    21:00 +14°C° 0 mm 1 m/S 665 mmHg 73%
    22:00 +14°C° 0 mm 1 m/S 665 mmHg 73%
    23:00 +13°C° 0 mm 1 m/S 665 mmHg 73%

    Morgen, 26 Mai, Samstag

    Zeit Temperatur Niederschläge Wind Luftdruck Luftfeuchtigkeit
    00:00 +13°C° 0 mm 1 m/S 665 mmHg 73%
    01:00 +13°C° 0 mm 2 m/S 664 mmHg 73%
    02:00 +13°C° 0 mm 2 m/S 664 mmHg 74%
    03:00 +12°C° 0 mm 2 m/S 664 mmHg 74%
    04:00 +12°C° 0 mm 2 m/S 664 mmHg 74%
    05:00 +14°C° 0 mm 2 m/S 665 mmHg 70%
    06:00 +16°C° 0 mm 2 m/S 666 mmHg 65%
    07:00 +17°C° 0 mm 2 m/S 666 mmHg 60%
    08:00 +19°C° 0 mm 2 m/S 667 mmHg 55%
    09:00 +20°C° 0 mm 3 m/S 667 mmHg 50%
    10:00 +22°C° 0 mm 3 m/S 668 mmHg 45%
    11:00 +22°C° 0 mm 3 m/S 668 mmHg 43%
    12:00 +22°C° 0 mm 4 m/S 668 mmHg 41%
    13:00 +23°C° 0 mm 4 m/S 668 mmHg 39%
    14:00 +22°C° 0 mm 4 m/S 668 mmHg 40%
    15:00 +22°C° 0 mm 4 m/S 667 mmHg 41%
    16:00 +21°C° 0 mm 3 m/S 667 mmHg 42%
    17:00 +20°C° 0 mm 3 m/S 667 mmHg 48%
    18:00 +18°C° 0 mm 2 m/S 666 mmHg 54%
    19:00 +16°C° 0 mm 1 m/S 666 mmHg 60%
    20:00 +15°C° 0 mm 1 m/S 666 mmHg 61%
    21:00 +15°C° 0 mm 1 m/S 666 mmHg 61%
    22:00 +14°C° 0 mm 1 m/S 666 mmHg 61%
    23:00 +14°C° 0 mm 2 m/S 666 mmHg 61%

    übermorgen, 27 Mai, Sonntag

    Zeit Temperatur Niederschläge Wind Luftdruck Luftfeuchtigkeit
    00:00 +14°C° 0 mm 2 m/S 666 mmHg 61%
    01:00 +14°C° 0 mm 2 m/S 666 mmHg 61%
    02:00 +14°C° 0 mm 2 m/S 666 mmHg 63%
    03:00 +13°C° 0 mm 2 m/S 666 mmHg 65%
    04:00 +13°C° 0 mm 2 m/S 665 mmHg 67%
    05:00 +15°C° 0 mm 2 m/S 666 mmHg 65%
    06:00 +16°C° 0 mm 2 m/S 667 mmHg 63%
    07:00 +18°C° 0 mm 2 m/S 667 mmHg 61%
    08:00 +19°C° 0 mm 2 m/S 668 mmHg 57%
    09:00 +20°C° 0 mm 3 m/S 668 mmHg 54%
    10:00 +21°C° 0 mm 3 m/S 669 mmHg 51%
    11:00 +22°C° 0,1 mm 3 m/S 669 mmHg 51%
    12:00 +22°C° 0,1 mm 3 m/S 669 mmHg 50%
    13:00 +22°C° 0,1 mm 3 m/S 669 mmHg 50%
    14:00 +21°C° 0,4 mm 3 m/S 668 mmHg 53%
    15:00 +20°C° 0,4 mm 2 m/S 668 mmHg 57%
    16:00 +20°C° 0,4 mm 2 m/S 668 mmHg 60%
    17:00 +19°C° 0,1 mm 1 m/S 668 mmHg 64%
    18:00 +18°C° 0,1 mm 1 m/S 667 mmHg 69%
    19:00 +16°C° 0,1 mm 1 m/S 667 mmHg 74%
    20:00 +15°C° 0 mm 1 m/S 667 mmHg 76%
    21:00 +15°C° 0 mm 1 m/S 667 mmHg 78%
    22:00 +14°C° 0 mm 1 m/S 667 mmHg 80%
    23:00 +14°C° 0 mm 1 m/S 667 mmHg 81%

    28 Mai, Montag

    Zeit Temperatur Niederschläge Wind Luftdruck Luftfeuchtigkeit
    00:00 +14°C° 0 mm 1 m/S 667 mmHg 82%
    01:00 +13°C° 0 mm 1 m/S 666 mmHg 83%
    02:00 +13°C° 0 mm 1 m/S 666 mmHg 82%
    03:00 +13°C° 0 mm 1 m/S 666 mmHg 81%
    04:00 +13°C° 0 mm 1 m/S 666 mmHg 80%
    05:00 +14°C° 0 mm 1 m/S 667 mmHg 75%
    06:00 +16°C° 0 mm 1 m/S 667 mmHg 69%
    07:00 +18°C° 0 mm 1 m/S 668 mmHg 63%
    08:00 +19°C° 0 mm 2 m/S 668 mmHg 58%
    09:00 +20°C° 0 mm 2 m/S 669 mmHg 54%
    10:00 +23°C° 0 mm 2 m/S 669 mmHg 50%
    11:00 +23°C° 0,1 mm 2 m/S 669 mmHg 50%
    12:00 +22°C° 0,1 mm 3 m/S 669 mmHg 51%
    13:00 +22°C° 0,1 mm 3 m/S 668 mmHg 52%
    14:00 +21°C° 0,8 mm 2 m/S 668 mmHg 56%
    15:00 +20°C° 0,8 mm 2 m/S 668 mmHg 61%
    16:00 +20°C° 0,8 mm 2 m/S 668 mmHg 65%
    17:00 +19°C° 0,5 mm 1 m/S 667 mmHg 70%
    18:00 +18°C° 0,5 mm 1 m/S 667 mmHg 74%
    19:00 +16°C° 0,5 mm 1 m/S 667 mmHg 79%
    20:00 +16°C° 0,1 mm 1 m/S 667 mmHg 80%
    21:00 +15°C° 0,1 mm 1 m/S 667 mmHg 82%
    22:00 +15°C° 0,1 mm 1 m/S 667 mmHg 83%
    23:00 +14°C° 0 mm 1 m/S 666 mmHg 83%

    29 Mai, Dienstag

    Zeit Temperatur Niederschläge Wind Luftdruck Luftfeuchtigkeit
    00:00 +14°C° 0 mm 1 m/S 666 mmHg 83%
    01:00 +14°C° 0 mm 1 m/S 666 mmHg 83%
    02:00 +13°C° 0 mm 1 m/S 666 mmHg 83%
    03:00 +13°C° 0 mm 1 m/S 665 mmHg 82%
    04:00 +12°C° 0 mm 1 m/S 665 mmHg 82%
    05:00 +14°C° 0 mm 1 m/S 666 mmHg 76%
    06:00 +15°C° 0 mm 2 m/S 666 mmHg 71%
    07:00 +17°C° 0 mm 2 m/S 667 mmHg 65%
    08:00 +18°C° 0 mm 2 m/S 667 mmHg 60%
    09:00 +20°C° 0 mm 2 m/S 668 mmHg 55%
    10:00 +21°C° 0 mm 2 m/S 668 mmHg 50%
    11:00 +21°C° 0,2 mm 2 m/S 668 mmHg 51%
    12:00 +21°C° 0,2 mm 3 m/S 667 mmHg 53%
    13:00 +21°C° 0,2 mm 3 m/S 667 mmHg 54%
    14:00 +21°C° 0,5 mm 2 m/S 667 mmHg 56%
    15:00 +20°C° 0,5 mm 2 m/S 667 mmHg 58%
    16:00 +20°C° 0,5 mm 2 m/S 667 mmHg 60%
    17:00 +18°C° 0,3 mm 2 m/S 666 mmHg 64%
    18:00 +18°C° 0,3 mm 1 m/S 666 mmHg 69%
    19:00 +16°C° 0,3 mm 1 m/S 666 mmHg 73%
    20:00 +15°C° 0 mm 1 m/S 666 mmHg 74%
    21:00 +15°C° 0 mm 1 m/S 665 mmHg 76%
    22:00 +14°C° 0 mm 1 m/S 665 mmHg 77%
    23:00 +14°C° 0 mm 1 m/S 665 mmHg 77%

    30 Mai, Mittwoch

    Zeit Temperatur Niederschläge Wind Luftdruck Luftfeuchtigkeit
    00:00 +13°C° 0 mm 1 m/S 665 mmHg 77%
    01:00 +13°C° 0 mm 1 m/S 664 mmHg 77%
    02:00 +13°C° 0 mm 1 m/S 664 mmHg 77%
    03:00 +12°C° 0 mm 1 m/S 664 mmHg 76%
    04:00 +12°C° 0 mm 1 m/S 664 mmHg 76%
    05:00 +14°C° 0 mm 1 m/S 665 mmHg 72%
    06:00 +16°C° 0 mm 1 m/S 665 mmHg 67%
    07:00 +17°C° 0 mm 2 m/S 666 mmHg 63%
    08:00 +19°C° 0 mm 2 m/S 666 mmHg 58%
    09:00 +20°C° 0 mm 2 m/S 667 mmHg 54%
    10:00 +23°C° 0 mm 2 m/S 667 mmHg 49%
    11:00 +23°C° 0,1 mm 2 m/S 667 mmHg 50%
    12:00 +23°C° 0,1 mm 2 m/S 667 mmHg 50%
    13:00 +23°C° 0,1 mm 2 m/S 667 mmHg 50%
    14:00 +23°C° 0,3 mm 2 m/S 667 mmHg 52%
    15:00 +21°C° 0,3 mm 2 m/S 666 mmHg 54%
    16:00 +21°C° 0,3 mm 2 m/S 666 mmHg 56%
    17:00 +20°C° 0,1 mm 1 m/S 666 mmHg 63%
    18:00 +19°C° 0,1 mm 1 m/S 666 mmHg 69%
    19:00 +16°C° 0,1 mm 1 m/S 665 mmHg 76%
    20:00 +16°C° 0,1 mm 1 m/S 665 mmHg 79%
    21:00 +15°C° 0,1 mm 1 m/S 665 mmHg 82%
    22:00 +13°C° 0,1 mm 0 m/S 665 mmHg 85%
    23:00 +13°C° 0 mm 0 m/S 665 mmHg 85%
    Mehr zeigen